SCP
-0 -0 -0 -0 -0 -0 0 0 0 0 0 0 -0 -0 0 0 0 -0 -0 -0 -0 -0 -0 -0 0 0 0 0 0 0 0 0 0 0 0 0 0 0 0 0 0 0 0 0
-0 -0 -0 -0 -0 -0 0 0 0 0 0 0 0 0 -0 -0 -0 -0 -0 -0 -0 -0 -0 -0 -0 -0 0 0 0 0 0 0 0 0 0 0 0 0 0 0 0 0 0 0
0 0 0 0 0 0 0 -0 0 0 0 0 0 -0 -0 -0 -0 -0 -0 -0 -0 -0 -0 -0 -0 -0 -0 0 0 0 0 0 0 0 0 0 0 0 0 0 0 0 0 0
0 0 0 0 0 0 -0 -0 -0 -0 0 0 0 -0 -0 -0 -0 -0 -0 -0 -0 -0 -0 -0 -0 -0 -0 -0 -0 -0 0 0 0 0 0 0 0 0 0 0 0 0 0 0
0 0 0 0 0 -0 -0 -0 -0 0 0 0 -0 -0 -0 -0 -0 -0 -0 -0 -0 -0 -0 -0 -0 -0 -0 -0 0 0 0 0 0 0 0 0 0 0 0 0 0 0 0 0
0 0 0 0 -0 0 0 -0 -0 -0 -0 0 0 0 0 -0 0 0 -0 -0 0 0 0 0 -0 0 0 -0 -0 -0 0 0 0 0 0 0 0 0 0 0 0 0 0 0
0 0 0 0 -0 0 0 0 0 -0 -0 -0 -0 -0 -0 0 0 0 0 0 0 0 0 0 0 0 0 0 0 0 0 0 0 0 0 0 0 0 0 0 0 0 0 0
0 0 0 -0 0 0 0 0 0 0 0 0 0 0 0 0 0 0 0 0 0 0 0 0 0 0 0 0 0 0 0 0 0 0 0 0 0 0 0 0 0 0 0 0
0 0 0 0 -0 -0 -0 0 0 0 0 0 0 0 0 0 -0 -0 -0 -0 0 0 0 0 0 0 0 0 0 0 0 0 0 0 0 0 0 0 0 0 0 0 0 0
0 0 0 0 0 0 0 -0 -0 0 0 0 0 0 0 0 0 0 0 0 0 0 0 0 0 0 0 0 0 0 0 0 0 0 0 0 0 0 0 0 0 0 0 0
0 0 0 0 0 0 0 -0 -0 -0 0 0 0 0 0 0 0 0 0 0 0 0 0 0 0 0 0 0 0 0 0 0 0 0 0 0 0 0 0 0 0 0 0 0
0 -0 0 -0 -0 0 0 0 0 0 0 0 0 0 0 0 0 0 0 0 0 0 0 0 0 0 0 0 0 0 0 0 0 0 0 0 0 0 0 0 0 0 0 0
-0 0 0 0 -0 0 0 0 0 0 0 0 0 0 0 0 0 0 0 0 0 0 0 0 0 0 0 0 0 0 0 0 0 0 0 0 0 0 0 0 0 0 0 0
0 0 0 0 0 0 0 0 0 0 0 0 0 0 0 0 0 0 0 0 0 0 0 0 0 0 0 0 0 0 0 0 0 0 0 0 0 0 0 0 0 0 0 0
0 0 0 0 0 0 0 0 0 0 0 0 0 0 0 0 0 0 0 0 0 0 0 0 0 0 0 0 0 0 0 0 0 0 0 0 0 0 0 0 0 0 0 0
0 0 0 0 0 0 0 0 0 0 0 0 0 0 0 0 0 0 0 0 0 0 0 0 0 0 0 0 0 0 0 0 0 0 0 0 0 0 0 0 0 0 0 0
0 0 0 0 0 0 0 0 0 0 0 0 0 0 0 0 0 0 0 0 0 0 0 0 0 0 0 0 0 0 0 0 0 0 0 0 0 0 0 0 0 0 0 0
-0 -0 0 0 0 0 0 0 0 0 0 0 0 0 0 0 0 0 0 0 0 0 0 0 0 0 0 0 0 0 0 0 0 0 0 0 0 0 0 0 0 0 0 0
-0 -0 0 0 0 0 0 0 0 0 0 0 0 0 0 0 0 0 0 0 0 0 0 0 0 0 0 0 0 0 0 0 0 0 0 0 0 0 0 0 0 0 0 0
0 0 0 0 0 0 0 0 0 0 0 0 0 0 0 0 0 0 0 0 0 0 0 0 0 0 0 0 0 0 0 0 0 0 0 0 0 0 0 0 0 0 0 0
-0 -0 -0 0 0 0 0 0 0 0 0 0 0 0 0 0 0 0 0 0 0 0 0 0 0 0 0 0 0 0 0 0 0 0 0 0 0 0 0 0 0 0 0 0
0 0 0 0 0 0 0 0 0 0 0 0 0 0 0 0 0 0 0 0 0 0 0 0 0 0 0 0 0 0 0 0 0 0 0 0 0 0 0 0 0 0 0 0
0 0 0 0 0 0 0 0 0 0 0 0 0 0 0 0 0 0 0 0 0 0 0 0 0 0 0 0 0 0 0 0 0 0 0 0 0 0 0 0 0 0 0 0
0 0 0 0 0 0 0 0 0 0 0 0 0 0 0 0 0 0 0 0 0 0 0 0 0 0 0 0 0 0 0 0 0 0 0 0 0 0 0 0 0 0 0 0
0 0 0 0 0 0 0 0 0 0 0 0 0 0 0 0 0 0 0 0 0 0 0 0 0 0 0 0 0 0 0 0 0 0 0 0 0 0 0 0 0 0 0 0
0 0 0 0 0 0 0 0 0 0 0 0 0 0 0 0 0 0 0 0 0 0 0 0 0 0 0 0 0 0 0 0 0 0 0 0 0 0 0 0 0 0 0 0
0 0 0 0 0 0 0 0 0 0 0 0 0 0 0 0 0 0 0 0 0 0 0 0 0 0 0 0 0 0 0 0 0 0 0 0 0 0 0 0 0 0 0 0
Wind_Speed_500mb
22 27 30 40 33 11 19 21 15 18 23 18 21 24 28 37 44 44 42 47 55 64 64 66 65 66 65 67 70 64 47 39 33 29 18 17 27 35 44 56 58 64 62 50
8 33 41 36 45 43 33 22 20 24 18 16 25 28 36 36 33 35 40 40 43 52 57 62 65 64 61 63 66 69 68 57 45 39 34 22 15 15 40 58 58 67 49 50
5 14 10 21 31 34 28 39 14 14 10 12 19 29 36 37 40 43 46 50 52 51 53 52 57 56 58 57 58 62 67 69 61 52 46 41 29 17 23 25 47 48 58 48
4 1 10 5 21 15 37 32 29 23 18 20 26 32 36 37 35 38 46 45 43 43 44 45 45 52 44 48 52 55 60 60 63 64 59 53 45 33 26 13 7 16 31 39
3 10 11 6 15 12 11 18 27 11 11 10 10 10 36 42 35 34 41 41 37 38 39 45 45 48 48 47 48 52 56 53 54 53 56 57 59 54 48 40 30 23 15 6
5 7 5 9 30 23 9 9 23 22 19 13 14 5 6 31 23 26 35 38 34 32 34 38 42 48 54 60 56 57 50 45 43 43 44 47 48 48 46 45 43 39 35 32
9 7 8 22 25 8 3 4 15 21 21 30 11 13 15 21 22 26 33 37 33 30 37 39 39 45 54 59 66 56 47 40 38 38 39 40 36 37 37 37 36 35 37 33
5 7 4 41 8 7 9 16 17 19 20 29 24 20 19 18 20 26 33 36 35 30 32 33 36 40 46 50 47 49 46 44 44 44 41 36 33 30 31 31 35 38 35 36
9 6 9 26 30 26 22 22 18 21 17 18 22 21 14 16 22 28 33 35 34 31 29 30 34 38 41 41 39 37 41 48 48 45 44 40 35 34 31 30 32 34 35 38
3 8 17 17 22 22 24 23 20 18 17 16 18 12 12 16 22 27 31 33 31 28 31 35 35 34 35 33 34 35 38 41 43 45 43 39 37 36 34 36 35 31 31 34
8 13 15 14 19 20 25 19 18 16 16 15 6 9 10 13 18 23 26 27 27 27 30 32 32 33 33 33 33 34 34 36 38 39 39 38 35 32 32 32 29 28 29 26
3 15 10 10 16 13 15 17 16 12 11 9 7 8 10 12 16 18 22 24 24 26 23 25 28 30 30 32 33 33 32 33 32 32 33 33 31 28 27 25 19 19 19 21
7 10 22 27 18 8 13 13 14 13 13 11 12 10 9 10 13 15 18 25 27 28 27 24 24 26 27 31 30 30 31 30 29 28 28 28 27 24 23 21 16 15 13 12
30 30 19 11 15 12 6 10 7 11 12 12 12 11 12 12 11 14 20 24 25 24 21 22 22 23 24 25 29 31 28 27 28 28 27 25 25 25 24 20 16 11 9 11
9 8 18 22 20 15 6 2 3 7 9 10 10 12 13 13 14 16 18 20 23 20 20 21 22 22 22 24 26 28 29 26 26 26 25 24 23 24 26 26 23 18 15 15
16 10 17 17 14 8 3 5 5 3 5 7 8 10 11 15 16 16 16 17 18 25 26 26 26 26 24 24 23 24 25 25 26 27 27 24 24 25 25 24 21 17 16 17
24 19 16 16 10 5 2 3 5 6 6 6 6 8 10 13 15 15 14 17 19 25 30 29 28 28 26 25 26 26 27 29 28 27 26 22 21 23 23 24 23 21 19 20
13 14 13 7 5 2 3 5 5 6 5 6 8 9 11 13 13 15 16 17 20 25 29 30 29 26 28 29 28 26 26 27 27 28 26 24 21 22 22 19 19 21 23 23
6 7 10 8 6 4 4 5 6 7 7 7 8 11 13 14 16 19 22 26 26 27 30 31 32 33 33 31 29 28 28 28 27 25 24 22 22 21 20 18 18 18 19 21
7 8 9 9 8 5 6 8 9 8 8 8 10 10 11 15 19 21 24 24 25 26 32 39 41 42 39 34 29 27 26 26 25 23 21 22 21 21 19 19 19 18 18 19
6 10 11 10 10 10 9 7 7 6 7 8 9 10 12 16 19 22 23 24 27 32 37 42 44 41 36 32 26 25 24 25 24 23 20 18 17 18 19 24 24 23 22 20
13 15 15 14 11 8 6 3 3 3 5 9 12 10 14 18 22 22 21 22 30 34 38 38 41 35 33 27 22 21 23 25 24 22 20 19 19 19 18 21 22 23 24 23
19 16 14 12 10 9 6 5 6 5 5 10 14 18 23 27 30 30 31 28 31 33 36 37 34 26 27 25 21 21 24 24 22 21 22 21 18 19 19 20 22 24 23 24
18 17 16 13 10 6 1 4 9 12 17 19 24 30 34 31 32 35 37 33 31 31 33 30 28 26 24 23 23 18 21 24 25 24 25 25 24 20 19 21 19 16 18 20
19 17 16 11 2 4 7 10 17 19 22 28 34 32 37 41 42 37 31 34 31 30 31 30 28 28 28 27 26 26 26 23 26 25 24 23 19 19 24 24 23 23 19 17
17 14 11 4 4 9 13 15 20 23 29 35 37 37 36 33 35 36 28 26 28 31 29 27 29 29 29 29 29 27 26 27 26 26 23 25 25 28 27 27 28 25 22 22
17 13 11 12 14 17 21 22 26 30 37 40 38 30 28 31 34 28 22 24 30 31 31 32 34 35 34 33 32 30 30 30 29 27 25 26 26 26 27 25 24 24 28 25
Wind_Direction_500mb
37 46 47 39 30 137 86 43 49 87 78 58 45 47 39 44 44 41 32 28 29 31 33 34 35 35 37 39 39 36 32 34 27 11 352 261 249 254 246 248 261 235 222 222
60 68 45 43 30 44 66 80 92 92 77 51 50 52 48 45 52 38 33 29 35 32 32 31 33 33 35 38 42 43 40 37 40 31 19 350 276 264 232 223 218 209 208 213
328 10 318 36 13 32 49 32 19 55 67 66 55 46 33 29 40 34 29 32 35 33 28 27 28 28 33 36 40 42 46 43 39 45 42 30 7 321 254 206 209 192 196 201
273 103 43 113 26 31 58 34 30 74 79 86 82 59 40 37 43 37 32 33 36 33 31 29 29 31 33 40 42 44 44 45 45 44 50 52 48 36 37 35 90 182 187 190
329 53 123 78 21 335 13 44 18 71 112 117 113 37 32 40 46 36 32 30 31 32 30 29 33 36 36 42 43 43 40 37 40 45 44 47 56 57 56 50 41 37 31 156
81 76 83 37 330 318 289 62 25 34 28 353 224 46 3 17 48 34 25 26 28 36 34 32 30 39 39 40 39 39 35 32 35 37 44 46 43 46 50 58 65 57 56 43
12 96 85 346 325 335 256 90 46 51 46 50 77 79 55 72 46 27 22 23 28 36 40 34 29 34 38 38 37 33 30 28 31 36 41 40 47 48 46 50 58 64 63 66
328 71 48 353 28 65 95 98 91 77 78 84 86 91 88 63 42 29 25 26 31 37 42 39 35 35 38 40 35 34 36 37 36 34 35 39 43 47 57 57 55 63 63 67
18 88 73 51 68 75 90 67 100 94 94 99 105 100 85 50 30 23 22 24 29 36 40 40 35 32 36 36 30 28 30 36 38 38 38 40 39 47 50 49 58 59 57 60
128 93 88 78 78 84 87 87 85 103 121 124 123 100 60 33 25 20 20 25 27 33 38 39 37 34 34 29 27 23 27 31 33 36 38 40 47 51 55 56 56 60 62 60
73 106 101 75 88 82 111 94 88 112 121 122 101 72 36 26 21 19 19 25 25 30 34 34 30 30 29 27 26 25 23 27 29 31 33 36 37 44 51 61 59 56 53 54
168 148 103 126 108 110 115 111 100 97 102 80 45 38 15 16 24 27 29 28 28 30 28 29 25 25 24 23 24 24 23 25 24 24 27 31 34 35 38 41 44 66 71 57
118 109 110 129 120 130 112 107 90 72 71 62 58 44 39 40 37 23 29 27 26 25 21 17 16 14 15 18 17 19 22 19 18 18 18 18 26 33 37 37 30 19 24 38
112 112 94 126 132 167 145 114 82 59 56 43 38 38 35 31 25 16 15 19 20 17 14 10 5 360 3 5 7 6 4 7 6 5 3 5 8 7 4 360 2 4 10 8
92 81 135 135 147 157 154 127 354 17 27 25 41 51 53 41 35 31 27 20 17 10 11 10 5 358 354 355 356 356 358 360 359 353 349 352 352 349 344 345 343 341 343 341
138 119 140 152 145 153 225 278 306 16 44 64 56 55 51 31 24 21 20 12 3 10 12 9 1 0 354 347 343 341 342 347 350 351 347 340 340 340 346 354 356 349 345 351
160 157 165 158 165 149 90 68 77 87 61 64 68 57 42 28 22 16 13 8 0 1 3 358 352 347 343 336 336 334 333 335 339 341 345 343 336 339 347 352 355 358 358 358
235 221 209 214 186 138 95 82 66 66 76 63 50 41 30 19 2 350 351 351 345 348 352 349 346 342 335 328 323 324 325 325 327 329 330 331 332 334 337 345 351 352 357 359
134 151 161 164 154 135 115 106 106 100 86 66 39 23 10 358 351 347 345 345 346 342 340 342 341 337 332 328 321 316 315 318 323 323 323 322 325 327 327 331 337 345 351 355
147 148 149 152 147 124 113 110 98 78 54 33 23 14 4 350 343 338 339 342 340 339 336 333 334 334 330 324 315 309 309 312 314 314 313 315 317 318 319 323 326 330 335 338
164 158 151 140 132 125 114 103 85 60 41 21 2 350 347 340 341 339 342 350 350 344 334 331 333 331 328 325 313 305 308 313 316 312 307 310 312 302 298 312 318 323 327 330
162 153 148 144 140 135 120 78 32 26 34 21 9 359 346 339 337 334 330 329 338 340 337 333 333 328 329 327 317 315 314 312 309 311 310 303 289 284 286 294 296 299 305 312
163 156 158 157 152 147 128 75 59 44 1 329 318 310 306 307 304 307 312 309 319 330 337 334 335 332 335 345 326 314 320 322 314 303 304 307 305 304 287 286 290 295 298 296
170 170 173 175 172 172 243 315 316 320 323 321 322 314 306 308 304 304 289 289 301 320 331 334 333 332 331 337 345 331 324 319 326 314 303 301 302 296 290 298 297 298 300 303
174 182 181 173 240 288 322 289 302 314 314 316 322 319 309 309 307 312 286 283 288 310 320 321 319 319 318 318 323 326 322 320 322 307 307 306 303 288 297 299 292 287 297 310
179 171 173 209 280 292 305 307 306 301 302 312 314 312 310 308 312 309 289 283 284 308 310 315 313 312 312 312 313 317 318 320 320 325 307 306 298 297 298 303 289 285 287 295
182 187 211 235 258 287 294 291 291 302 307 308 308 312 310 308 314 321 304 293 300 303 301 302 302 298 297 298 300 303 305 309 303 307 310 307 307 305 303 305 297 264 281 291
Wind_Speed_850mb
22 27 30 40 33 11 19 21 15 18 23 18 21 24 28 37 44 44 42 47 55 64 64 66 65 66 65 67 70 64 47 39 33 29 18 17 27 35 44 56 58 64 62 50
8 33 41 36 45 43 33 22 20 24 18 16 25 28 36 36 33 35 40 40 43 52 57 62 65 64 61 63 66 69 68 57 45 39 34 22 15 15 40 58 58 67 49 50
5 14 10 21 31 34 28 39 14 14 10 12 19 29 36 37 40 43 46 50 52 51 53 52 57 56 58 57 58 62 67 69 61 52 46 41 29 17 23 25 47 48 58 48
4 1 10 5 21 15 37 32 29 23 18 20 26 32 36 37 35 38 46 45 43 43 44 45 45 52 44 48 52 55 60 60 63 64 59 53 45 33 26 13 7 16 31 39
3 10 11 6 15 12 11 18 27 11 11 10 10 10 36 42 35 34 41 41 37 38 39 45 45 48 48 47 48 52 56 53 54 53 56 57 59 54 48 40 30 23 15 6
5 7 5 9 30 23 9 9 23 22 19 13 14 5 6 31 23 26 35 38 34 32 34 38 42 48 54 60 56 57 50 45 43 43 44 47 48 48 46 45 43 39 35 32
9 7 8 22 25 8 3 4 15 21 21 30 11 13 15 21 22 26 33 37 33 30 37 39 39 45 54 59 66 56 47 40 38 38 39 40 36 37 37 37 36 35 37 33
5 7 4 41 8 7 9 16 17 19 20 29 24 20 19 18 20 26 33 36 35 30 32 33 36 40 46 50 47 49 46 44 44 44 41 36 33 30 31 31 35 38 35 36
9 6 9 26 30 26 22 22 18 21 17 18 22 21 14 16 22 28 33 35 34 31 29 30 34 38 41 41 39 37 41 48 48 45 44 40 35 34 31 30 32 34 35 38
3 8 17 17 22 22 24 23 20 18 17 16 18 12 12 16 22 27 31 33 31 28 31 35 35 34 35 33 34 35 38 41 43 45 43 39 37 36 34 36 35 31 31 34
8 13 15 14 19 20 25 19 18 16 16 15 6 9 10 13 18 23 26 27 27 27 30 32 32 33 33 33 33 34 34 36 38 39 39 38 35 32 32 32 29 28 29 26
3 15 10 10 16 13 15 17 16 12 11 9 7 8 10 12 16 18 22 24 24 26 23 25 28 30 30 32 33 33 32 33 32 32 33 33 31 28 27 25 19 19 19 21
7 10 22 27 18 8 13 13 14 13 13 11 12 10 9 10 13 15 18 25 27 28 27 24 24 26 27 31 30 30 31 30 29 28 28 28 27 24 23 21 16 15 13 12
30 30 19 11 15 12 6 10 7 11 12 12 12 11 12 12 11 14 20 24 25 24 21 22 22 23 24 25 29 31 28 27 28 28 27 25 25 25 24 20 16 11 9 11
9 8 18 22 20 15 6 2 3 7 9 10 10 12 13 13 14 16 18 20 23 20 20 21 22 22 22 24 26 28 29 26 26 26 25 24 23 24 26 26 23 18 15 15
16 10 17 17 14 8 3 5 5 3 5 7 8 10 11 15 16 16 16 17 18 25 26 26 26 26 24 24 23 24 25 25 26 27 27 24 24 25 25 24 21 17 16 17
24 19 16 16 10 5 2 3 5 6 6 6 6 8 10 13 15 15 14 17 19 25 30 29 28 28 26 25 26 26 27 29 28 27 26 22 21 23 23 24 23 21 19 20
13 14 13 7 5 2 3 5 5 6 5 6 8 9 11 13 13 15 16 17 20 25 29 30 29 26 28 29 28 26 26 27 27 28 26 24 21 22 22 19 19 21 23 23
6 7 10 8 6 4 4 5 6 7 7 7 8 11 13 14 16 19 22 26 26 27 30 31 32 33 33 31 29 28 28 28 27 25 24 22 22 21 20 18 18 18 19 21
7 8 9 9 8 5 6 8 9 8 8 8 10 10 11 15 19 21 24 24 25 26 32 39 41 42 39 34 29 27 26 26 25 23 21 22 21 21 19 19 19 18 18 19
6 10 11 10 10 10 9 7 7 6 7 8 9 10 12 16 19 22 23 24 27 32 37 42 44 41 36 32 26 25 24 25 24 23 20 18 17 18 19 24 24 23 22 20
13 15 15 14 11 8 6 3 3 3 5 9 12 10 14 18 22 22 21 22 30 34 38 38 41 35 33 27 22 21 23 25 24 22 20 19 19 19 18 21 22 23 24 23
19 16 14 12 10 9 6 5 6 5 5 10 14 18 23 27 30 30 31 28 31 33 36 37 34 26 27 25 21 21 24 24 22 21 22 21 18 19 19 20 22 24 23 24
18 17 16 13 10 6 1 4 9 12 17 19 24 30 34 31 32 35 37 33 31 31 33 30 28 26 24 23 23 18 21 24 25 24 25 25 24 20 19 21 19 16 18 20
19 17 16 11 2 4 7 10 17 19 22 28 34 32 37 41 42 37 31 34 31 30 31 30 28 28 28 27 26 26 26 23 26 25 24 23 19 19 24 24 23 23 19 17
17 14 11 4 4 9 13 15 20 23 29 35 37 37 36 33 35 36 28 26 28 31 29 27 29 29 29 29 29 27 26 27 26 26 23 25 25 28 27 27 28 25 22 22
17 13 11 12 14 17 21 22 26 30 37 40 38 30 28 31 34 28 22 24 30 31 31 32 34 35 34 33 32 30 30 30 29 27 25 26 26 26 27 25 24 24 28 25
Wind_Direction_850mb
37 46 47 39 30 137 86 43 49 87 78 58 45 47 39 44 44 41 32 28 29 31 33 34 35 35 37 39 39 36 32 34 27 11 352 261 249 254 246 248 261 235 222 222
60 68 45 43 30 44 66 80 92 92 77 51 50 52 48 45 52 38 33 29 35 32 32 31 33 33 35 38 42 43 40 37 40 31 19 350 276 264 232 223 218 209 208 213
328 10 318 36 13 32 49 32 19 55 67 66 55 46 33 29 40 34 29 32 35 33 28 27 28 28 33 36 40 42 46 43 39 45 42 30 7 321 254 206 209 192 196 201
273 103 43 113 26 31 58 34 30 74 79 86 82 59 40 37 43 37 32 33 36 33 31 29 29 31 33 40 42 44 44 45 45 44 50 52 48 36 37 35 90 182 187 190
329 53 123 78 21 335 13 44 18 71 112 117 113 37 32 40 46 36 32 30 31 32 30 29 33 36 36 42 43 43 40 37 40 45 44 47 56 57 56 50 41 37 31 156
81 76 83 37 330 318 289 62 25 34 28 353 224 46 3 17 48 34 25 26 28 36 34 32 30 39 39 40 39 39 35 32 35 37 44 46 43 46 50 58 65 57 56 43
12 96 85 346 325 335 256 90 46 51 46 50 77 79 55 72 46 27 22 23 28 36 40 34 29 34 38 38 37 33 30 28 31 36 41 40 47 48 46 50 58 64 63 66
328 71 48 353 28 65 95 98 91 77 78 84 86 91 88 63 42 29 25 26 31 37 42 39 35 35 38 40 35 34 36 37 36 34 35 39 43 47 57 57 55 63 63 67
18 88 73 51 68 75 90 67 100 94 94 99 105 100 85 50 30 23 22 24 29 36 40 40 35 32 36 36 30 28 30 36 38 38 38 40 39 47 50 49 58 59 57 60
128 93 88 78 78 84 87 87 85 103 121 124 123 100 60 33 25 20 20 25 27 33 38 39 37 34 34 29 27 23 27 31 33 36 38 40 47 51 55 56 56 60 62 60
73 106 101 75 88 82 111 94 88 112 121 122 101 72 36 26 21 19 19 25 25 30 34 34 30 30 29 27 26 25 23 27 29 31 33 36 37 44 51 61 59 56 53 54
168 148 103 126 108 110 115 111 100 97 102 80 45 38 15 16 24 27 29 28 28 30 28 29 25 25 24 23 24 24 23 25 24 24 27 31 34 35 38 41 44 66 71 57
118 109 110 129 120 130 112 107 90 72 71 62 58 44 39 40 37 23 29 27 26 25 21 17 16 14 15 18 17 19 22 19 18 18 18 18 26 33 37 37 30 19 24 38
112 112 94 126 132 167 145 114 82 59 56 43 38 38 35 31 25 16 15 19 20 17 14 10 5 360 3 5 7 6 4 7 6 5 3 5 8 7 4 360 2 4 10 8
92 81 135 135 147 157 154 127 354 17 27 25 41 51 53 41 35 31 27 20 17 10 11 10 5 358 354 355 356 356 358 360 359 353 349 352 352 349 344 345 343 341 343 341
138 119 140 152 145 153 225 278 306 16 44 64 56 55 51 31 24 21 20 12 3 10 12 9 1 0 354 347 343 341 342 347 350 351 347 340 340 340 346 354 356 349 345 351
160 157 165 158 165 149 90 68 77 87 61 64 68 57 42 28 22 16 13 8 0 1 3 358 352 347 343 336 336 334 333 335 339 341 345 343 336 339 347 352 355 358 358 358
235 221 209 214 186 138 95 82 66 66 76 63 50 41 30 19 2 350 351 351 345 348 352 349 346 342 335 328 323 324 325 325 327 329 330 331 332 334 337 345 351 352 357 359
134 151 161 164 154 135 115 106 106 100 86 66 39 23 10 358 351 347 345 345 346 342 340 342 341 337 332 328 321 316 315 318 323 323 323 322 325 327 327 331 337 345 351 355
147 148 149 152 147 124 113 110 98 78 54 33 23 14 4 350 343 338 339 342 340 339 336 333 334 334 330 324 315 309 309 312 314 314 313 315 317 318 319 323 326 330 335 338
164 158 151 140 132 125 114 103 85 60 41 21 2 350 347 340 341 339 342 350 350 344 334 331 333 331 328 325 313 305 308 313 316 312 307 310 312 302 298 312 318 323 327 330
162 153 148 144 140 135 120 78 32 26 34 21 9 359 346 339 337 334 330 329 338 340 337 333 333 328 329 327 317 315 314 312 309 311 310 303 289 284 286 294 296 299 305 312
163 156 158 157 152 147 128 75 59 44 1 329 318 310 306 307 304 307 312 309 319 330 337 334 335 332 335 345 326 314 320 322 314 303 304 307 305 304 287 286 290 295 298 296
170 170 173 175 172 172 243 315 316 320 323 321 322 314 306 308 304 304 289 289 301 320 331 334 333 332 331 337 345 331 324 319 326 314 303 301 302 296 290 298 297 298 300 303
174 182 181 173 240 288 322 289 302 314 314 316 322 319 309 309 307 312 286 283 288 310 320 321 319 319 318 318 323 326 322 320 322 307 307 306 303 288 297 299 292 287 297 310
179 171 173 209 280 292 305 307 306 301 302 312 314 312 310 308 312 309 289 283 284 308 310 315 313 312 312 312 313 317 318 320 320 325 307 306 298 297 298 303 289 285 287 295
182 187 211 235 258 287 294 291 291 302 307 308 308 312 310 308 314 321 304 293 300 303 301 302 302 298 297 298 300 303 305 309 303 307 310 307 307 305 303 305 297 264 281 291